Regional Weather Roundup
Issued by NWS

Home | Current Version | Previous Version | Graphics & Text | Print | Product List | Glossary On
Versions: 1 2 3 4 5 6 7 8 9 10 11 12 13 14 15 16 17 18 19 20 21 22 23 24 25 26 27 28 29 30 31 32 33 34 35 36 37 38 39 40 41 42 43 44 45 46 47 48 49 50
000
ASUS43 KLOT 100106
RWRIL

ILLINOIS REGIONAL WEATHER ROUNDUP
NATIONAL WEATHER SERVICE CHICAGO/ROMEOVILLE IL
800 PM CDT WED JUL 09 2014

NOTE: "FAIR" INDICATES FEW OR NO CLOUDS BELOW 12,000 FEET WITH NO
SIGNIFICANT WEATHER AND/OR OBSTRUCTIONS TO VISIBILITY.

* THESE STATIONS ARE NOT UNDER NWS QUALITY CONTROL. THEY ALSO MAY NOT
  REPORT WEATHER SUCH AS PRECIPITATION OR FOG.

ILZ001-002-007-009-015-016-024-100200-
NORTHWEST ILLINOIS

CITY           SKY/WX    TMP DP  RH WIND       PRES   REMARKS
MOLINE         CLOUDY    76  54  46 N3        30.01S
STERLING*      CLEAR     73  55  53 N3        30.02S
SAVANNA*       CLEAR     73  55  52 CALM      30.02R
$$

ILZ003-004-008-010-011-017-018-100200-
NORTH CENTRAL ILLINOIS

CITY           SKY/WX    TMP DP  RH WIND       PRES   REMARKS
ROCKFORD       PTCLDY    72  51  47 N7        30.03R
FREEPORT*      CLEAR     69  55  61 CALM      30.05R
ROCHELLE*      CLEAR     69  56  62 N5        30.03S
DE KALB*       CLEAR     68  52  58 N7        30.03R
PERU*          CLEAR     73  56  55 N7        30.02S
$$

ILZ005-006-012>014-019>023-100200-
NORTHEAST ILLINOIS

CITY           SKY/WX    TMP DP  RH WIND       PRES   REMARKS
CHICAGO-OHARE  PTCLDY    74  48  39 N12       30.00R
CHICAGO-MIDWAY PTCLDY    74  57  55 NE9       30.00R
AURORA         CLEAR     70  54  56 N6        30.02R
LANSING*       CLEAR     70  55  59 NE5       30.00R
JOLIET*        CLEAR     73  49  43 N8        30.02R
WAUKEGAN       CLEAR     63  56  78 E5        30.01R
DUPAGE AIRPORT CLEAR     72  50  45 N10       30.01R
KANKAKEE*      CLEAR     72  57  58 NW6       30.01R
WHEELING       CLEAR     71  57  61 NE6       30.02R
MORRIS*        PTCLDY    71  59  64 CALM      30.01R
ROMEOVILLE*    PTCLDY    72  49  44 N10       30.01R
NORTHERLY ISL    N/A     67  60  78 NE5         N/A
$$

LMZ740>746-100200-
SOUTHERN LAKE MICHIGAN

STATION/POSITION SKY/WX   TEMP    WIND        PRES    VSBY  WAVE
                          AIR SEA DIR/SP/G                  HT/PER
                          (F)     (DEG/KT/KT) (MB)    (MI)  (FT/S)
SOUTHERN BUOY              59 58  230/  2/  2 1016.5R         0
WAUKEGAN HARBOR            67     150/  3/  3 1017.6S
HARRISON CRIB              66      50/  6/  7   N/A
BURNHAM HARBOR             67      50/  4/  5   N/A
CALUMET HARBOR             68      30/  4/  6 1016.8S
MICHIGAN CITY              69      10/  9/ 10   N/A
$$

ILZ025>027-034>036-040-047-049-050-058-095>099-100200-
WEST-CENTRAL ILLINOIS

CITY           SKY/WX    TMP DP  RH WIND       PRES   REMARKS
QUINCY         CLEAR     73  60  63 N5        30.03S
GALESBURG*     CLEAR     75  60  59 CALM      30.03S
MACOMB*        CLEAR     73  61  66 CALM      30.05S
JACKSONVILLE*  CLEAR     73  60  65 N5        30.04S
PITTSFIELD*    CLEAR     73  60  62 N5        30.04S
$$

ILZ028>032-037-038-041>044-048-051>054-059>061-100200-
CENTRAL ILLINOIS

CITY           SKY/WX    TMP DP  RH WIND       PRES   REMARKS
PONTIAC        CLEAR     72  57  60 N6        30.01R
BLOOMINGTON    PTCLDY    73  55  53 NW9       30.03R
DECATUR        CLEAR     75  56  51 N8        30.01S
PEORIA         CLEAR     75  56  51 N3        30.02S
LACON*         CLEAR     72  56  56 N3        30.01R
LINCOLN*       CLEAR     74  57  54 CALM      29.99S
SPRINGFIELD    CLEAR     75  57  53 N5        30.02S
TAYLORVILLE    CLEAR     70  61  73 NW5       30.02R
$$

ILZ033-039-045-046-055>057-062-063-100200-
EAST-CENTRAL ILLINOIS

CITY           SKY/WX    TMP DP  RH WIND       PRES   REMARKS
CHAMPAIGN      CLEAR     72  60  66 NW8       30.01R
RANTOUL*       CLEAR     74  56  53 NW7       30.02R
MATTOON        CLEAR     73  58  59 N6        30.00R
PARIS*         CLEAR     72  60  65 CALM      30.01R
$$

ILZ079-100>102-100200-
SOUTHWEST ILLINOIS

CITY           SKY/WX    TMP DP  RH WIND       PRES   REMARKS
BELLEVILLE     CLEAR     77  62  59 N6        30.00R
CAHOKIA*       CLEAR     79  54  41 N10       30.00R
SPARTA*        PTCLDY    73  63  68 CALM      30.01R
$$

ILZ064>066-069>071-074>076-080>082-084>086-088>090-092>094-100200-
SOUTH-CENTRAL ILLINOIS

CITY           SKY/WX    TMP DP  RH WIND       PRES   REMARKS
CARBONDALE     CLEAR     79  65  62 NW5       29.98R HX  81
CAIRO*         CLEAR     81  67  63 CALM      29.98R HX  83
MARION         CLEAR     77  68  73 CALM      29.99S
MT. VERNON     CLOUDY    79  63  57 CALM      30.00R HX  80
CENTRALIA*     CLEAR     76  61  57 NW8       30.00R
SALEM*         CLEAR     78  64  61 N6        30.01R
METROPOLIS*    CLEAR     79  62  56 CALM      29.98S HX  80
$$

ILZ067-068-072-073-078-083-087-091-100200-
SOUTHEAST ILLINOIS

CITY           SKY/WX    TMP DP  RH WIND       PRES   REMARKS
FLORA*         CLEAR     76  60  57 NW5       30.00R
HARRISBURG*    CLEAR     78  65  63 CALM      29.99S HX  80
ROBINSON*      CLEAR     77  64  63 N6        30.00R
CARMI*         PTCLDY    78  67  69 N5        29.97S HX  80
$$

ABBREVIATIONS USED IN REMARKS
   TC - TEMPERATURE IN CELSIUS
  WCI - WIND CHILL INDEX
   HX - HEAT INDEX
  VSB - VISIBILITY
$$



USA.gov is the U.S. government's official web portal to all federal, state and local government web resources and services.